Regional Weather Roundup
Issued by NWS

Current Version | Previous Version | Text Only | Print | Product List | Glossary On
Versions: 1 2 3 4 5 6 7 8 9 10 11 12 13 14 15 16 17 18 19 20 21 22 23 24 25 26 27 28 29 30 31 32 33 34 35 36 37 38 39 40 41 42 43 44 45 46 47 48 49 50
000
ASUS44 KFWD 181515
RWRTX
NORTH TEXAS HOURLY WEATHER ROUNDUP
NATIONAL WEATHER SERVICE FORT WORTH TX
900 AM CST THU DEC 18 2014

NOTE: "FAIR" INDICATES FEW OR NO CLOUDS BELOW 12,000 FEET WITH NO
SIGNIFICANT WEATHER AND/OR OBSTRUCTIONS TO VISIBILITY.

TXZ118-119-181600-
DALLAS/FORT WORTH METROPLEX

CITY           SKY/WX    TMP DP  RH WIND       PRES   REMARKS
DFW AIRPORT    DRZL/FOG  43  43 100 CALM      30.15R VSB 1
DALLAS LOVE    DRIZZLE   44  43  96 E3        30.16R FOG
FTW MEACHAM    FOG       45  43  93 E6        30.15R VSB 3/4
DAL-EXECUTIVE  FOG       45  42  89 E6        30.14R VSB 3/4
FTW-ALLIANCE   CLOUDY    44  43  96 CALM      30.15R FOG
FTW-SPINKS     FOG       45  45 100 CALM      30.16R VSB 1
ARLINGTON      FOG       45  45 100 NE5       30.15R VSB 1
GRAND PRAIRIE  FOG       45  45 100 NE5       30.16S VSB 1
ADDISON        FOG       45  43  93 E5        30.16R VSB 1
MESQUITE       FOG       43  43 100 CALM      30.17R VSB 1
LANCASTER      CLOUDY    43  42  94 NE3       30.17R FOG
$$

TXZ091>094-102>105-117-120-121-131>134-181600-
NORTH CENTRAL TEXAS

CITY           SKY/WX    TMP DP  RH WIND       PRES   REMARKS
SHRMAN/DENISON CLOUDY    41  41 100 CALM      30.17R FOG
GAINESVILLE    CLOUDY    41  40  98 E5        30.18R FOG     WCI  38
BOWIE          CLOUDY    42  42 100 SE5       30.14S FOG     WCI  39
BRIDGEPORT     CLOUDY    43  43 100 E5        30.17R FOG
DECATUR        FOG       42  42 100 E5        30.14R VSB 1/2 WCI  39
DENTON         CLOUDY    44  43  96 E3        30.16R FOG
MCKINNEY       CLOUDY    42  41  96 E3        30.17R FOG
GREENVILLE     CLOUDY    43  41  93 CALM      30.17R FOG
ROCKWALL       CLOUDY    42  42  99 E3        30.15R FOG
TERRELL        CLOUDY    45  43  93 NE5       30.17R FOG
WAXAHACHIE     FOG       44  44 100 CALM      30.16R VSB 1
CLEBURNE       CLOUDY    46  46 100 CALM      30.15S FOG
GRANBURY       CLOUDY    47  46  93 SE3       30.15S FOG
$$

TXZ083>090-098>101-113>116-127>130-139>142-154-155-181600-
WESTERN NORTH TEXAS

CITY           SKY/WX    TMP DP  RH WIND       PRES   REMARKS
WICHITA FALLS  CLOUDY    42  41  96 SE7       30.13R FOG     WCI  38
WF-KICKAPOO    CLOUDY    43  43 100 SE6       30.14R FOG     WCI  39
VERNON         CLOUDY    42  39  88 NE5       30.14R WCI  40
ABILENE        SUNNY     47  45  93 SW6       30.11R
ABILENE-DYESS  SUNNY     47  42  80 S2        30.10R
BRECKENRIDGE   PTSUNNY   50  49  98 S3        30.11S FOG
GRAHAM         FOG       45  45 100 SE3       30.12R VSB 1
MINERAL WELLS  FOG       45  44  97 SE7       30.12R VSB 3/4
STEPHENVILLE   CLOUDY    47  46  95 CALM      30.14S VSB 1/4
COMANCHE       CLOUDY    51  51 100 SW7       30.12R
BROWNWOOD      CLOUDY    50  50 100 SW7       30.13R
COLEMAN        CLOUDY    49  49  97 SW7       30.13R
BRADY          FOG       50  50 100 W6        30.12R VSB 0
$$

TXZ143>147-156>162-174-175-181600-
CENTRAL TEXAS

CITY           SKY/WX    TMP DP  RH WIND       PRES   REMARKS
WACO           FOG       47  46  97 CALM      30.14S VSB 1
WACO-MCGREGOR  CLOUDY    48  43  81 CALM      30.15S
HILLSBORO      CLOUDY    46  45  94 CALM      30.15S FOG
CORSICANA      FOG       47  45  93 E5        30.15S VSB 1/4
MEXIA          FOG       47  46  99 E3        30.13S VSB 1/2
HEARNE         CLOUDY    49  49  99 CALM      30.15S FOG
CAMERON        FOG       49  49  99 CALM      30.14S VSB 1/2
TEMPLE         CLOUDY    48  45  87 CALM      30.12S VSB 1/4
KILLEEN        CLOUDY    48  48 100 S1        30.13R FOG
KILLEEN-SKYLRK CLOUDY    48  43  81 CALM      30.10R
FORT HOOD      CLOUDY    48  48 100 VRB1      30.12S FOG
GATESVILLE     CLOUDY    48  48 100 CALM      30.15S VSB 1
HAMILTON       FOG       49  49 100 CALM      30.13S VSB 3/4
LAMPASAS       CLOUDY    50  50  99 CALM      30.12R FOG
$$

TXZ095>097-106>112-122>126-135>138-148>153-164>167-181600-
EAST TEXAS

CITY           SKY/WX    TMP DP  RH WIND       PRES   REMARKS
PARIS          CLOUDY    41  37  87 E8        30.18F WCI  36
SULPHUR SPRNGS CLOUDY    42  42  98 E3        30.19S FOG
MOUNT PLEASANT CLOUDY    42  42  97 E3        30.20R
MINEOLA        CLOUDY    43  43 100 SE3       30.17R
TYLER          CLOUDY    45  43  93 E6        30.15R FOG
LONGVIEW       CLOUDY    46  43  89 E8        30.16R
MARSHALL       CLOUDY    47  46  93 E3        30.19S
ATHENS         CLOUDY    45  45 100 E5        30.14S FOG
PALESTINE      CLOUDY    47  47  97 CALM      30.16R FOG
JACKSONVILLE   CLOUDY    46  45  99 E7        30.16R FOG
HENDERSON      CLOUDY    45  44  97 E3        30.17R
NACOGDOCHES    CLOUDY    48  43  81 E7        30.16R
LUFKIN         CLOUDY    53  46  77 NE7       30.14S
$$

SUPPLEMENTAL OBSERVATIONS (CENTRAL)

CITY           SKY/WX    TMP DP  RH WIND       PRES   REMARKS
LAKE TEXOMA      N/A     41  39  93 E6          N/A  WCI  37
PAT MAYSE LAKE   N/A     39  37  93 NE3         N/A
GREENVILLE       N/A     41  39  93 E5          N/A  WCI  38
CEDAR HILL       N/A     45  43  93 NE2         N/A
ATHENS           N/A     46  45  93 E7          N/A
PALESTINE        N/A     46  43  87 E3          N/A
LAKE LIMESTONE   N/A     48  46  93 NE5         N/A
MCGREGOR         N/A     48  46  93 CALM        N/A
TEMPLE           N/A     48  46  93 CALM        N/A
$$

SUPPLEMENTAL OBSERVATIONS (WEST)

CITY           SKY/WX    TMP DP  RH WIND       PRES   REMARKS
MILLERS CREEK    N/A     46  43  87 NW5         N/A
POSSUM KINGDOM   N/A     46  45  93 SE5         N/A
GRANBURY         N/A     46  45  93 SE5         N/A
COMANCHE         N/A     52  50  93 SW7         N/A
HAMBY            N/A     46  43  87 S5          N/A
$$

SUPPLEMENTAL OBSERVATIONS (EAST)

CITY           SKY/WX    TMP DP  RH WIND       PRES   REMARKS
CLARKSVILLE      N/A     39  37  93 E6          N/A  WCI  35
TEXARKANA        N/A     43  37  81 E2          N/A
LINDEN           N/A     43  39  87 E2          N/A
CADDO LAKE       N/A     45  43  93 E2          N/A
GILMER           N/A     43  39  87 E5          N/A
HENDERSON        N/A     45  39  81 E6          N/A
LUFKIN           N/A     52  46  82 MISG        N/A
N SABINE NF      N/A     48  45  87 MISG        N/A
S SABINE NF      N/A     48  45  87 N3          N/A
$$

SUPPLEMENTAL OBSERVATIONS ARE A COLLECTION OF AUTOMATED INSTRUMENTS
THAT ARE MAINTAINED BY A VARIETY OF FEDERAL AND STATE AGENCIES.
CERTAIN ELEMENTS...SUCH AS HUMIDITY VALUES AND SUSTAINED WIND
SPEEDS...MAY BE APPROXIMATED.



USA.gov is the U.S. government's official web portal to all federal, state and local government web resources and services.